Miscellaneous Local Product
Issued by NWS North Platte, NE

Home | Current Version | Previous Version | Text Only | Print | Product List | Glossary On
Versions: 1 2 3 4 5 6 7 8 9 10 11 12 13 14 15 16 17 18 19 20 21 22 23 24 25 26 27 28 29 30 31 32 33 34 35 36 37 38 39 40 41 42 43 44 45 46 47 48 49 50
000
AXUS43 KLBF 020010
MISLBF


WESTERN AND NORTH CENTRAL NEBRASKA HOURLY WEATHER ROUNDUP
NATIONAL WEATHER SERVICE NORTH PLATTE NE
700 PM CDT FRI AUG 01 2014

***STATIONS NOT REPORTING VARIABLES SUCH AS SKY/WEATHER OR
PRESSURE ARE PROVIDED BY THE NEBRASKA DEPARTMENT OF
ROADS...RAWS...AND APRS NETWORKS...AND ARE NOT UNDER
NATIONAL WEATHER SERVICE QUALITY CONTROL***

...OBSERVATIONS IN AND NEAR THE EASTERN PANHANDLE OF NEBRASKA...

CITY           SKY/WX    TMP DP  RH WIND       PRES   REMARKS
PINE RIDGE     PTSUNNY   81  52  36 NE6       30.10S
CHADRON        CLOUDY    79  51  37 NE9G22    30.10R
ALLIANCE       MOSUNNY   88  36  15 S8        30.12F
SIDNEY         MOSUNNY   87  39  18 VRB5      30.17F
RUSHVILLE        N/A     92  31  11 E13         N/A
BIG SPRINGS      N/A     85  53  33 S3          N/A
$$

...OBSERVATIONS IN NORTH CENTRAL NEBRASKA...

CITY           SKY/WX    TMP DP  RH WIND       PRES   REMARKS
VALENTINE      MOSUNNY   92  46  20 E9G20     30.03F
THEDFORD       SUNNY     90  49  24 SE6       30.08F
AINSWORTH      SUNNY     84  57  39 E9        30.07S
O`NEILL        SUNNY     83  58  41 SE10      30.08F
ORD            SUNNY     82  57  42 E9        30.08S
BROKEN BOW     SUNNY     85  60  42 SE10      30.09S
SPRINGVIEW       N/A     86  61  43 E10         N/A
SARGENT          N/A     84  58  41 CALM        N/A
COMSTOCK         N/A     87  61  40 SE7         N/A
CHAMBERS         N/A     86  56  35 E6          N/A
EWING            N/A     80  60  50 CALM        N/A
$$

...OBSERVATIONS IN SOUTHWEST NEBRASKA AND FAR NORTHEAST COLORADO...

CITY           SKY/WX    TMP DP  RH WIND       PRES   REMARKS
WRAY             N/A     85  49  28 SE10      30.15S
HOLYOKE        FAIR      86  46  25 SE7       30.15S
IMPERIAL       SUNNY     88  46  23 E7        30.11F
OGALLALA       MOSUNNY   81  50  33 S6        30.11S
NORTH PLATTE   SUNNY     82  53  36 E12       30.09S
MCCOOK         MOSUNNY   85  56  37 SE7       30.10F
LEXINGTON      MOSUNNY   82  60  46 SE10      30.10S
PAXTON           N/A     90  51  26 S7          N/A
BRADY            N/A     81  59  47 N3          N/A
GOTHENBURG       N/A     87  53  30 E6          N/A
CALLAWAY         N/A     92  69  46 E3          N/A  HX  96
$$

...SOME WEATHER OBSERVATIONS FROM AROUND THE REGION...

CITY           SKY/WX    TMP DP  RH WIND       PRES   REMARKS
DENVER         PTSUNNY   79  43  27 E7        30.25S
LARAMIE        SUNNY     71  38  29 SE16      30.35S
CHEYENNE       MOSUNNY   76  45  33 SW12G21   30.29S
SCOTTSBLUFF    MOSUNNY   89  36  15 E8        30.13F
RAPID CITY     PTSUNNY   79  50  36 W12       30.06F
PIERRE         SUNNY     89  56  32 E21       29.96F
WINNER         FAIR      91  52  26 SE9       30.01F
SIOUX FALLS    MOSUNNY   78  58  49 SE8       30.08S
OMAHA          MOSUNNY   82  60  47 E6        30.06F
GRAND ISLAND   SUNNY     81  60  48 E9        30.10S
KANSAS CITY    SUNNY     82  61  48 E9        30.04F
WICHITA        MOSUNNY   86  60  41 SE9       30.00F
HAYS           SUNNY     88  52  29 NE14      30.06F
LIBERAL        SUNNY     88  50  27 N7        30.12S
GOODLAND       PTSUNNY   84  46  26 SE8       30.16S
$$



USA.gov is the U.S. government's official web portal to all federal, state and local government web resources and services.